Location: D�derode
(51.8092°N, 10.1065°E)
Time: 20:51:31
(UTC+00:00)

YAOGAN 1 - Pass Details

Date: 01 December 2020
Orbit: 618 x 620 km, 97.9° (Epoch: 25 January)

Event Time Altitude Azimuth Distance (km) Brightness Sun altitude
Exits shadow 17:09:19 31° 98° (E) 1,093 3.3 -17.1°
Maximum altitude 17:10:23 36° 66° (ENE) 988 3.1 -17.3°
Drops below altitude 10° 17:14:23 10° 0° (N) 2,002 5.0 -17.9°
Sets 17:16:41 0° 352° (N) 2,913 6.0 -18.3°
